Location: *
(39.6167°S, 171.5333°W)
Time: 23:01:25
(UTC+00:00)

CZ-4B R/B - Pass Details

Date: 13 May 2021
Orbit: 489 x 648 km, 97.9° (Epoch: 15 June)

Event Time Altitude Azimuth Distance (km) Brightness Sun altitude
Rises 16:01:09 0° 17° (NNE) 2,809 6.7 -27.2°
Reaches altitude 10° 16:03:15 10° 17° (NNE) 1,941 5.8 -26.8°
Enters shadow 16:06:35 55° 28° (NNE) 745 3.5 -26.1°
